Ionia, MI

1:08 AM EST on December 08, 2019 (GMT -0500)
Ionia

Weather History for KY70 - October, 2019

Change the Weather History Date:

Sunday, October 20, 2019

  Actual Average (WUND) Record (WUND)
Temperature  
Mean Temperature 57 °F -  
Max Temperature 68 °F - - (-1)
Min Temperature 46 °F - - (-1)
Degree Days  
Heating Degree Days 8    
Growing Degree Days 7 (Base 50)    
Moisture  
Dew Point 46 °F    
Average Humidity 73    
Maximum Humidity 92    
Minimum Humidity 45    
Precipitation  
Precipitation 0.01 in - - ()
Sea Level Pressure  
Sea Level Pressure 29.87 in    
Wind  
Wind Speed 3 mph ()    
Max Wind Speed 8 mph    
Max Gust Speed -    
Visibility 9.9 miles    
Events Rain    
Averages and records for this station are not official NWS values.
T = Trace of Precipitation, MM = Missing Value Source: Averaged Metar Reports

Daily Weather History Graph

Daily Weather History Graph

Search for Another Location

Airport or City:

Astronomy

Oct. 20, 2019 Rise Set
Actual Time 7:59 AM EDT 6:49 PM EDT
Civil Twilight 7:30 AM EDT 7:18 PM EDT
Nautical Twilight 6:57 AM EDT 7:51 PM EDT
Astronomical Twilight 6:24 AM EDT 8:24 PM EDT
Moon 11:52 PM EDT (10/20) 2:32 PM EDT (10/20)
Length of Visible Light 11h 48m
Length of Day
10h 50m
Waning Gibbous, 59% of the Moon is Illuminated
Oct 20
Waning Gibbous
Oct 21
Last Quarter
Oct 27
New
Nov 4
First Quarter
Nov 12
Full

Hourly Weather History & Observations

Time (EDT) Temp. Windchill Dew Point Humidity Pressure Visibility Wind Dir Wind Speed Gust Speed Precip Events Conditions
12:15 AM 49.3 °F - 41.2 °F 74% 29.78 in 10.0 mi SE 8.1 mph - N/A   Clear
12:35 AM 49.1 °F - 41.9 °F 76% 29.78 in 10.0 mi SE 8.1 mph - N/A   Clear
12:58 AM 49.8 °F - 42.1 °F 75% 29.78 in 10.0 mi SE 6.9 mph - N/A   Clear
1:16 AM 50.0 °F - 42.3 °F 75% 29.78 in 10.0 mi SSE 5.8 mph - N/A   Scattered Clouds
1:35 AM 51.1 °F - 42.1 °F 71% 29.78 in 10.0 mi SSE 5.8 mph - N/A   Mostly Cloudy
1:36 AM 51.1 °F - 42.1 °F 71% 29.78 in 10.0 mi SSE 5.8 mph - N/A   Mostly Cloudy
1:55 AM 51.4 °F - 41.9 °F 70% 29.78 in 10.0 mi SSE 4.6 mph - N/A   Overcast
1:59 AM 51.4 °F - 41.9 °F 70% 29.78 in 10.0 mi South 3.5 mph - N/A   Overcast
2:18 AM 51.8 °F - 41.9 °F 69% 29.78 in 10.0 mi Calm Calm - N/A   Overcast
2:36 AM 51.8 °F - 41.9 °F 69% 29.78 in 10.0 mi South 3.5 mph - N/A   Overcast
2:55 AM 51.4 °F - 41.9 °F 70% 29.78 in 10.0 mi SE 5.8 mph - N/A   Overcast
3:15 AM 51.1 °F - 42.3 °F 72% 29.79 in 10.0 mi Calm Calm - N/A   Overcast
3:39 AM 50.9 °F - 44.2 °F 78% 29.78 in 10.0 mi SW 4.6 mph - N/A Rain Rain
3:57 AM 49.3 °F - 45.5 °F 87% 29.78 in 10.0 mi SSE 4.6 mph - 0.01 in Rain Light Rain
4:15 AM 49.1 °F - 45.9 °F 89% 29.78 in 10.0 mi SSE 3.5 mph - N/A   Overcast
4:16 AM 49.1 °F - 45.9 °F 89% 29.78 in 10.0 mi SSE 3.5 mph - N/A   Overcast
4:35 AM 48.7 °F - 46.0 °F 90% 29.77 in 10.0 mi SE 3.5 mph - N/A   Overcast
4:55 AM 49.5 °F - 46.8 °F 90% 29.77 in 10.0 mi Calm Calm - N/A   Overcast
5:17 AM 49.3 °F - 46.8 °F 91% 29.78 in 10.0 mi Calm Calm - N/A   Overcast
5:36 AM 49.1 °F - 46.8 °F 92% 29.78 in 10.0 mi SE 5.8 mph - N/A   Overcast
5:55 AM 49.1 °F - 46.8 °F 92% 29.78 in 10.0 mi SE 5.8 mph - N/A   Overcast
6:15 AM 49.5 °F - 46.4 °F 89% 29.79 in 10.0 mi Calm Calm - N/A   Overcast
6:16 AM 49.6 °F - 46.4 °F 89% 29.79 in 10.0 mi Calm Calm - N/A   Overcast
6:39 AM 49.8 °F - 46.4 °F 88% 29.79 in 10.0 mi Calm Calm - N/A   Overcast
6:57 AM 49.3 °F - 46.4 °F 90% 29.80 in 10.0 mi Calm Calm - N/A   Overcast
7:15 AM 48.9 °F - 46.6 °F 92% 29.81 in 10.0 mi Calm Calm - N/A   Overcast
7:35 AM 50.0 °F - 46.9 °F 89% 29.82 in 10.0 mi SW 3.5 mph - N/A   Overcast
7:55 AM 49.6 °F - 46.8 °F 90% 29.82 in 10.0 mi Calm Calm - N/A   Overcast
8:18 AM 50.9 °F - 46.8 °F 86% 29.83 in 10.0 mi SW 3.5 mph - N/A   Overcast
8:36 AM 50.9 °F - 47.7 °F 89% 29.83 in 10.0 mi Calm Calm - N/A   Overcast
8:55 AM 51.1 °F - 47.5 °F 87% 29.84 in 10.0 mi South 3.5 mph - N/A   Overcast
9:15 AM 51.8 °F - 47.7 °F 86% 29.85 in 10.0 mi Calm Calm - N/A   Overcast
9:35 AM 52.3 °F - 48.4 °F 86% 29.86 in 10.0 mi WSW 4.6 mph - N/A   Overcast
9:58 AM 53.1 °F - 48.9 °F 86% 29.87 in 10.0 mi West 3.5 mph - N/A   Overcast
10:16 AM 54.1 °F - 49.6 °F 85% 29.87 in 10.0 mi Calm Calm - N/A   Overcast
10:35 AM 55.4 °F - 50.4 °F 83% 29.87 in 10.0 mi West 4.6 mph - N/A   Overcast
10:36 AM 55.4 °F - 50.5 °F 84% 29.87 in 10.0 mi West 5.8 mph - N/A   Overcast
10:55 AM 55.2 °F - 50.5 °F 84% 29.88 in 10.0 mi WNW 3.5 mph - N/A   Overcast
11:19 AM 57.0 °F - 50.9 °F 80% 29.88 in 10.0 mi Calm Calm - N/A   Scattered Clouds
11:37 AM 58.3 °F - 50.9 °F 76% 29.89 in 10.0 mi Calm Calm - N/A   Clear
11:55 AM 60.1 °F - 50.7 °F 71% 29.89 in 10.0 mi Calm Calm - N/A   Clear
11:56 AM 60.1 °F - 50.7 °F 71% 29.89 in 10.0 mi Calm Calm - N/A   Clear
12:15 PM 61.0 °F - 50.9 °F 69% 29.89 in 10.0 mi Calm Calm - N/A   Clear
12:16 PM 61.3 °F - 50.9 °F 69% 29.89 in 10.0 mi Calm Calm - N/A   Clear
12:35 PM 62.8 °F - 51.1 °F 66% 29.89 in 5.0 mi WNW 4.6 mph - N/A   Haze
12:40 PM 62.8 °F - 50.5 °F 64% 29.89 in 5.0 mi WNW 3.5 mph - N/A   Haze
12:58 PM 63.7 °F - 49.8 °F 61% 29.89 in 10.0 mi North - - N/A   Clear
1:16 PM 64.2 °F - 49.6 °F 59% 29.89 in 10.0 mi Calm Calm - N/A   Clear
1:35 PM 65.3 °F - 49.8 °F 57% 29.89 in 10.0 mi NW 3.5 mph - N/A   Scattered Clouds
1:55 PM 65.8 °F - 47.8 °F 52% 29.89 in 10.0 mi North - - N/A   Scattered Clouds
2:18 PM 66.7 °F - 48.9 °F 53% 29.89 in 10.0 mi WNW 5.8 mph - N/A   Scattered Clouds
2:35 PM 65.1 °F - 48.0 °F 54% 29.89 in 10.0 mi NW 5.8 mph - N/A   Mostly Cloudy
2:55 PM 67.1 °F - 48.6 °F 51% 29.88 in 10.0 mi NW 4.6 mph - N/A   Mostly Cloudy
2:56 PM 66.7 °F - 48.4 °F 52% 29.88 in 10.0 mi WNW 5.8 mph - N/A   Mostly Cloudy
3:15 PM 67.5 °F - 48.4 °F 50% 29.88 in 10.0 mi Calm Calm - N/A   Mostly Cloudy
3:39 PM 67.1 °F - 48.7 °F 52% 29.89 in 10.0 mi NW 4.6 mph - N/A   Scattered Clouds
3:57 PM 66.0 °F - 48.0 °F 52% 29.89 in 10.0 mi West 3.5 mph - N/A   Scattered Clouds
4:15 PM 67.1 °F - 47.3 °F 49% 29.89 in 10.0 mi North - - N/A   Clear
4:35 PM 68.2 °F - 47.7 °F 48% 29.90 in 10.0 mi WNW 4.6 mph - N/A   Clear
4:36 PM 68.0 °F - 47.5 °F 48% 29.90 in 10.0 mi North - - N/A   Clear
4:55 PM 65.8 °F - 44.8 °F 47% 29.90 in 10.0 mi Calm Calm - N/A   Clear
5:00 PM 66.2 °F - 45.5 °F 47% 29.90 in 10.0 mi Calm Calm - N/A   Clear
5:18 PM 65.8 °F - 45.3 °F 47% 29.90 in 10.0 mi Calm Calm - N/A   Clear
5:36 PM 65.8 °F - 44.8 °F 47% 29.90 in 10.0 mi North 4.6 mph - N/A   Clear
5:55 PM 65.3 °F - 43.5 °F 45% 29.90 in 10.0 mi Calm Calm - N/A   Clear
6:15 PM 63.9 °F - 44.4 °F 49% 29.91 in 10.0 mi North 3.5 mph - N/A   Clear
6:39 PM 63.5 °F - 43.9 °F 49% 29.92 in 10.0 mi Calm Calm - N/A   Clear
6:57 PM 60.6 °F - 46.4 °F 59% 29.92 in 10.0 mi Calm Calm - N/A   Clear
7:15 PM 57.6 °F - 46.4 °F 66% 29.92 in 10.0 mi Calm Calm - N/A   Clear
7:16 PM 57.6 °F - 46.4 °F 66% 29.92 in 10.0 mi Calm Calm - N/A   Clear
7:35 PM 56.1 °F - 44.8 °F 66% 29.94 in 10.0 mi Calm Calm - N/A   Clear
7:36 PM 55.2 °F - 45.0 °F 68% 29.94 in 10.0 mi Calm Calm - N/A   Clear
7:55 PM 55.8 °F - 46.6 °F 71% 29.93 in 10.0 mi Calm Calm - N/A   Clear
8:18 PM 55.2 °F - 45.0 °F 68% 29.95 in 10.0 mi Calm Calm - N/A   Clear
8:36 PM 53.2 °F - 45.9 °F 76% 29.95 in 10.0 mi Calm Calm - N/A   Clear
8:55 PM 50.0 °F - 45.3 °F 84% 29.95 in 10.0 mi Calm Calm - N/A   Clear
8:56 PM 50.4 °F - 45.5 °F 83% 29.95 in 10.0 mi Calm Calm - N/A   Clear
9:15 PM 52.5 °F - 45.7 °F 78% 29.95 in 10.0 mi Calm Calm - N/A   Clear
9:16 PM 52.2 °F - 45.5 °F 78% 29.95 in 10.0 mi Calm Calm - N/A   Clear
9:39 PM 50.0 °F - 46.2 °F 87% 29.95 in 10.0 mi NE 3.5 mph - N/A   Clear
9:57 PM 50.0 °F - 47.1 °F 90% 29.95 in 10.0 mi ENE 3.5 mph - N/A   Clear
10:15 PM 50.4 °F - 46.2 °F 86% 29.95 in 10.0 mi Calm Calm - N/A   Clear
10:35 PM 49.3 °F - 44.2 °F 83% 29.96 in 10.0 mi Calm Calm - N/A   Clear
10:55 PM 48.6 °F - 45.0 °F 87% 29.96 in 10.0 mi Calm Calm - N/A   Clear
11:18 PM 46.2 °F 45.0 °F 43.3 °F 90% 29.96 in 10.0 mi East 3.5 mph - N/A   Clear
11:36 PM 48.6 °F - 45.5 °F 89% 29.95 in 10.0 mi Calm Calm - N/A   Scattered Clouds
11:55 PM 47.3 °F - 45.1 °F 92% 29.95 in 10.0 mi Calm Calm - N/A   Scattered Clouds
11:56 PM 46.9 °F - 44.8 °F 92% 29.95 in 10.0 mi Calm Calm - N/A   Scattered Clouds